Location: Godiavel Galaoual
(15.2485°N, 12.6604°W)
Time: 12:49:51
(UTC+00:00)

LightSail 2 - Pass Details

Date: 10 June 2020
Orbit: 692 x 720 km, 24.0° (Epoch: 14 July)

Event Time Altitude Azimuth Distance (km) Brightness Sun altitude
Rises 21:13:20 0° 267° (W) 3,046 9.2 -24.5°
Reaches altitude 10° 21:15:50 10° 274° (W) 2,129 8.4 -25.0°
Maximum altitude 21:20:38 45° 347° (NNW) 935 6.0 -26.0°
Enters shadow 21:22:11 34° 31° (NNE) 1,122 6.1 -26.3°
